VIASAT-2

Last updated on Wed Oct 29 2025 00:02:49 GMT+0000 (Coordinated Universal Time)

1 42740U 17029A 25301.28323456 -.00000255 00000+0 00000+0 0 9991 2 42740 0.0215 268.6900 0000467 209.2300 311.0672 1.00269806 30871
UTC large
Height (km)
Speed (km/s)
/
Latitude / Longitude
Inclination (degrees)
Orbital Period (minutes)
Azimuth
Elevation
Range (km)
Doppler Factor

Next 0 passes for location: London (51.5072 / 0.1276)

Sorry there are no passes over London.